WA6MEM Weather Reports


time (UTC)temp
C
wind
direction
speed
KPH
gust
KPH
rain 1hr
cm
rain 24hr
cm
rain mn
cm
humidity
%
barometer
mb
20260505034523 11 196 3.2 0.0 0.00 0.00 0.00 94 1013.6
20260505034024 11 165 1.6 0.0 0.00 0.00 0.00 94 1013.6
20260505033526 11 192 1.6 0.0 0.00 0.00 0.00 94 1013.6
20260505033033 11 151 1.6 0.0 0.00 0.00 0.00 94 1013.6
20260505032524 11 201 3.2 0.0 0.00 0.00 0.00 94 1013.5
20260505032024 11 194 3.2 0.0 0.00 0.00 0.00 94 1013.5
20260505031523 11 178 4.8 0.0 0.00 0.00 0.00 94 1013.5
20260505031023 11 213 4.8 0.0 0.00 0.00 0.00 94 1013.3
20260505030523 11 193 4.8 0.0 0.00 0.00 0.00 94 1013.3
20260505030023 11 176 4.8 0.0 0.00 0.00 0.00 94 1013.3
20260505025527 11 184 4.8 0.0 0.00 0.00 0.00 93 1013.4
20260505025021 11 157 4.8 0.0 0.00 0.00 0.00 93 1013.4
20260505024546 11 176 6.4 0.0 0.00 0.00 0.00 93 1013.4
20260505024021 11 203 6.4 0.0 0.00 0.00 0.00 93 1013.4
20260505023521 11 219 6.4 0.0 0.00 0.00 0.00 93 1013.4
20260505023023 11 185 6.4 0.0 0.00 0.00 0.00 93 1013.4
20260505022522 11 196 6.4 0.0 0.00 0.00 0.00 93 1013.4
20260505022021 11 151 6.4 0.0 0.00 0.00 0.00 92 1013.4
20260505021541 12 205 8.0 0.0 0.00 0.00 0.00 92 1013.4
20260505021020 12 161 8.0 0.0 0.00 0.00 0.00 91 1013.5
20260505020521 12 185 6.4 0.0 0.00 0.00 0.00 91 1013.5
20260505020021 12 166 6.4 0.0 0.00 0.00 0.00 90 1013.5
20260505015523 12 167 6.4 0.0 0.00 0.00 0.00 90 1013.4
20260505015020 12 150 6.4 0.0 0.00 0.00 0.00 89 1013.4
20260505014525 12 180 6.4 0.0 0.00 0.00 0.00 88 1013.4
20260505014022 12 192 4.8 0.0 0.00 0.00 0.00 88 1013.3
20260505013519 12 199 4.8 0.0 0.00 0.00 0.00 87 1013.3
20260505013019 13 175 4.8 0.0 0.00 0.00 0.00 86 1013.3
20260505012522 13 162 4.8 0.0 0.00 0.00 0.00 85 1013.3
20260505012019 13 181 6.4 0.0 0.00 0.00 0.00 83 1013.3
20260505011526 13 214 6.4 0.0 0.00 0.00 0.00 82 1013.3
20260505011018 13 165 6.4 0.0 0.00 0.00 0.00 80 1013.3
20260505010518 14 228 4.8 0.0 0.00 0.00 0.00 79 1013.3
20260505010019 14 163 4.8 0.0 0.00 0.00 0.00 79 1013.3
20260505005518 14 190 6.4 0.0 0.00 0.00 0.00 79 1013.4
20260505005018 14 189 4.8 0.0 0.00 0.00 0.00 80 1013.4
20260505004529 14 162 4.8 0.0 0.00 0.00 0.00 80 1013.4
20260505004017 14 167 4.8 0.0 0.00 0.00 0.00 80 1013.5
20260505003517 13 192 6.4 0.0 0.00 0.00 0.00 78 1013.5
20260505003017 14 144 6.4 0.0 0.00 0.00 0.00 77 1013.5
20260505002517 14 207 6.4 0.0 0.00 0.00 0.00 78 1013.5
20260505002017 14 195 6.4 0.0 0.00 0.00 0.00 79 1013.5
20260505001517 14 207 6.4 0.0 0.00 0.00 0.00 80 1013.5
20260505001018 14 186 8.0 0.0 0.00 0.00 0.00 82 1013.5
20260505000519 13 169 6.4 0.0 0.00 0.00 0.00 82 1013.5
20260505000019 13 200 6.4 0.0 0.00 0.00 0.00 80 1013.5
20260504235516 13 213 8.0 0.0 0.00 0.00 0.00 81 1013.5
20260504235019 13 173 8.0 0.0 0.00 0.00 0.00 82 1013.5
20260504234518 13 174 8.0 0.0 0.00 0.00 0.00 83 1013.5
20260504234017 13 165 8.0 0.0 0.00 0.00 0.00 81 1013.4
20260504233516 14 200 9.7 0.0 0.00 0.00 0.00 78 1013.4
20260504233016 14 140 9.7 0.0 0.00 0.00 0.00 78 1013.4
20260504232516 14 196 9.7 0.0 0.00 0.00 0.00 79 1013.1
20260504232015 15 177 9.7 0.0 0.00 0.00 0.00 76 1013.1
20260504231515 15 136 8.0 0.0 0.00 0.00 0.00 75 1013.1
20260504231017 15 254 8.0 0.0 0.00 0.00 0.00 77 1013.1
20260504230515 15 161 9.7 0.0 0.00 0.00 0.00 76 1013.1
20260504230015 15 188 9.7 0.0 0.00 0.00 0.00 75 1013.1
20260504225517 16 184 9.7 0.0 0.00 0.00 0.00 76 1013.3
20260504225015 15 230 8.0 0.0 0.00 0.00 0.00 78 1013.3
20260504224513 15 175 8.0 0.0 0.00 0.00 0.00 78 1013.3
20260504224014 15 195 11.3 0.0 0.00 0.00 0.00 79 1013.5
20260504223514 15 194 9.7 0.0 0.00 0.00 0.00 79 1013.5
20260504223014 15 175 9.7 0.0 0.00 0.00 0.00 81 1013.5
20260504222514 15 179 9.7 0.0 0.00 0.00 0.00 80 1013.8
20260504222014 15 147 11.3 0.0 0.00 0.00 0.00 81 1013.8
20260504221513 15 234 9.7 0.0 0.00 0.00 0.00 80 1013.8
20260504221013 15 168 8.0 0.0 0.00 0.00 0.00 80 1014.0
20260504220517 15 360 9.7 0.0 0.00 0.00 0.00 79 1014.0
20260504220018 15 236 11.3 0.0 0.00 0.00 0.00 82 1014.0
20260504215512 15 279 9.7 0.0 0.00 0.00 0.00 81 1014.3
20260504215013 15 171 8.0 0.0 0.00 0.00 0.00 82 1014.3
20260504214512 15 233 8.0 0.0 0.00 0.00 0.00 82 1014.3
20260504214013 15 211 9.7 0.0 0.00 0.00 0.00 84 1014.5
20260504213514 15 201 9.7 0.0 0.00 0.00 0.00 82 1014.5
20260504213012 15 162 9.7 0.0 0.00 0.00 0.00 81 1014.5
20260504212512 15 193 9.7 0.0 0.00 0.00 0.00 81 1014.5
20260504212013 15 167 9.7 0.0 0.00 0.00 0.00 82 1014.5
20260504211511 15 173 9.7 0.0 0.00 0.00 0.00 82 1014.5
20260504211011 15 155 9.7 0.0 0.00 0.00 0.00 82 1014.5
20260504210515 15 199 8.0 0.0 0.00 0.00 0.00 81 1014.5
20260504210011 15 203 8.0 0.0 0.00 0.00 0.00 81 1014.5
20260504205510 15 128 8.0 0.0 0.00 0.00 0.00 82 1014.5
20260504205009 15 203 8.0 0.0 0.00 0.00 0.00 81 1014.5
20260504204515 15 183 6.4 0.0 0.00 0.00 0.00 82 1014.5
20260504204009 15 248 8.0 0.0 0.00 0.00 0.00 82 1014.6
20260504203510 15 225 8.0 0.0 0.00 0.00 0.00 80 1014.6
20260504203009 15 360 8.0 0.0 0.00 0.00 0.00 82 1014.6
20260504202509 15 197 9.7 0.0 0.00 0.00 0.00 81 1014.4
20260504202009 15 196 9.7 0.0 0.00 0.00 0.00 80 1014.4
20260504201508 15 186 8.0 0.0 0.00 0.00 0.00 79 1014.4
20260504201009 15 312 8.0 0.0 0.00 0.00 0.00 78 1014.5
20260504200508 16 205 6.4 0.0 0.00 0.00 0.00 78 1014.5
20260504200008 16 150 8.0 0.0 0.00 0.00 0.00 78 1014.5
20260504195507 16 212 8.0 0.0 0.00 0.00 0.00 78 1014.4
20260504195007 16 139 6.4 0.0 0.00 0.00 0.00 78 1014.4
20260504194508 16 200 8.0 0.0 0.00 0.00 0.00 76 1014.4
20260504194007 16 155 8.0 0.0 0.00 0.00 0.00 77 1014.4
20260504193507 16 238 8.0 0.0 0.00 0.00 0.00 71 1014.4
20260504193006 16 202 8.0 0.0 0.00 0.00 0.00 73 1014.4
20260504192506 16 169 8.0 0.0 0.00 0.00 0.00 75 1014.5
20260504192007 16 179 8.0 0.0 0.00 0.00 0.00 71 1014.5
20260504191510 16 140 8.0 0.0 0.00 0.00 0.00 73 1014.5
20260504191004 16 248 8.0 0.0 0.00 0.00 0.00 74 1014.5
20260504190504 16 196 8.0 0.0 0.00 0.00 0.00 72 1014.5
20260504190006 15 187 6.4 0.0 0.00 0.00 0.00 74 1014.5
20260504185500 15 273 6.4 0.0 0.00 0.00 0.00 73 1014.8
20260504185100 15 244 6.4 0.0 0.00 0.00 0.00 75 1014.8
20260504184602 15 227 6.4 0.0 0.00 0.00 0.00 75 1014.8
20260504184100 15 271 8.0 0.0 0.00 0.00 0.00 74 1014.6
20260504183559 15 191 6.4 0.0 0.00 0.00 0.00 76 1014.6
20260504183105 15 226 6.4 0.0 0.00 0.00 0.00 78 1014.6
20260504182558 15 282 6.4 0.0 0.00 0.00 0.00 77 1014.7
20260504182058 15 161 8.0 0.0 0.00 0.00 0.00 79 1014.7
20260504181604 15 234 6.4 0.0 0.00 0.00 0.00 75 1014.7
20260504181058 15 248 6.4 0.0 0.00 0.00 0.00 77 1014.6
20260504180559 15 231 6.4 0.0 0.00 0.00 0.00 78 1014.6
20260504180057 15 204 8.0 0.0 0.00 0.00 0.00 79 1014.6
20260504175556 14 269 9.7 0.0 0.00 0.00 0.00 77 1014.7
20260504175056 15 156 8.0 0.0 0.00 0.00 0.00 78 1014.7
20260504174555 15 192 4.8 0.0 0.00 0.00 0.00 79 1014.7
20260504174055 14 161 6.4 0.0 0.00 0.00 0.00 79 1014.6
20260504173554 14 217 6.4 0.0 0.00 0.00 0.00 79 1014.6
20260504173059 14 316 6.4 0.0 0.00 0.00 0.00 78 1014.6
20260504172554 14 277 6.4 0.0 0.00 0.00 0.00 77 1014.5
20260504172054 14 225 6.4 0.0 0.00 0.00 0.00 77 1014.5
20260504171557 14 210 6.4 0.0 0.00 0.00 0.00 77 1014.5
20260504171054 14 192 4.8 0.0 0.00 0.00 0.00 76 1014.3
20260504170553 14 225 4.8 0.0 0.00 0.00 0.00 75 1014.3
20260504151036 11 277 8.0 0.0 0.00 0.00 0.00 85 1013.7
20260504150536 11 319 9.7 0.0 0.00 0.00 0.00 85 1013.7
20260504141031 10 282 8.0 0.0 0.00 0.00 0.00 91 1013.5
20260504140634 10 311 8.0 0.0 0.00 0.00 0.00 91 1013.5
20260504130527 10 302 6.4 0.0 0.00 0.00 0.00 90 1013.2
20260504110518 11 237 4.8 0.0 0.00 0.00 0.00 90 1013.3
20260504100511 11 307 4.8 0.0 0.00 0.00 0.00 90 1013.0
20260504082003 11 270 1.6 0.0 0.00 0.00 0.00 90 1013.4
20260504081502 11 250 1.6 0.0 0.00 0.00 0.00 90 1013.4
20260504081002 11 250 1.6 0.0 0.00 0.00 0.00 90 1013.9
20260504080502 11 209 0.0 0.0 0.00 0.00 0.00 90 1013.9
20260504050550 11 177 1.6 0.0 0.00 0.00 0.00 89 1013.6
20260504045547 11 256 1.6 0.0 0.00 0.00 0.00 90 1013.6
20260504045048 11 188 1.6 0.0 0.00 0.00 0.00 90 1013.6
20260504044547 12 199 1.6 0.0 0.00 0.00 0.00 91 1013.6
20260504044047 12 167 1.6 0.0 0.00 0.00 0.00 90 1013.6
20260504043548 12 220 1.6 0.0 0.00 0.00 0.00 90 1013.6
20260504043055 12 160 1.6 0.0 0.00 0.00 0.00 90 1013.6
20260504042548 12 204 1.6 0.0 0.00 0.00 0.00 90 1013.5
20260504042046 12 213 1.6 0.0 0.00 0.00 0.00 90 1013.5
20260504041546 12 268 1.6 0.0 0.00 0.00 0.00 89 1013.5
20260504041046 12 183 1.6 0.0 0.00 0.00 0.00 89 1013.4
20260504040546 12 188 1.6 0.0 0.00 0.00 0.00 89 1013.4
20260504040046 12 183 3.2 0.0 0.00 0.00 0.00 88 1013.4
20260504035546 12 192 3.2 0.0 0.00 0.00 0.00 88 1013.1
20260504035046 12 173 3.2 0.0 0.00 0.00 0.00 88 1013.1